QFA2930 YPPH-YIBO

Flight info

Callsign QFA2930
Flight time 1h 45m
Altitude 39000
Route PH Y15 ESDEG Y60 GUVNA
Aircraft A20N/M-SDE2E3FGHIRWXY/LB1

Departure

Time 2026-04-21 21:45
Airport Perth International Airport (YPPH)

Arrival

Time 2026-04-21 23:30
Airport Iron Bridge Mine Airport (YIBO)
Time Latitude Longitude Altitude Speed Heading
2026-04-21 20:54 -31.93379 115.96184 69 ft 0 kts 290°
2026-04-21 21:28 -31.93383 115.96194 69 ft 2 kts 290°
2026-04-21 21:28 -31.93388 115.96210 68 ft 2 kts 290°
2026-04-21 21:28 -31.93398 115.96244 65 ft 2 kts 290°
2026-04-21 21:29 -31.93401 115.96255 64 ft 1 kts 290°
2026-04-21 21:29 -31.93404 115.96272 63 ft 2 kts 261°
2026-04-21 21:29 -31.93400 115.96288 62 ft 2 kts 238°
2026-04-21 21:29 -31.93389 115.96301 61 ft 2 kts 212°
2026-04-21 21:30 -31.93382 115.96307 61 ft 1 kts 198°
2026-04-21 21:30 -31.93377 115.96308 61 ft 0 kts 199°
2026-04-21 21:35 -31.93386 115.96305 61 ft 2 kts 189°
2026-04-21 21:36 -31.93411 115.96328 60 ft 8 kts 114°
2026-04-21 21:36 -31.93446 115.96403 56 ft 10 kts 137°
2026-04-21 21:36 -31.93519 115.96418 56 ft 10 kts 193°
2026-04-21 21:36 -31.93588 115.96397 58 ft 10 kts 194°
2026-04-21 21:37 -31.93664 115.96375 58 ft 12 kts 193°
2026-04-21 21:37 -31.93756 115.96348 58 ft 14 kts 194°
2026-04-21 21:37 -31.93854 115.96320 60 ft 14 kts 194°
2026-04-21 21:37 -31.93946 115.96293 64 ft 13 kts 194°
2026-04-21 21:38 -31.94034 115.96267 66 ft 13 kts 195°
2026-04-21 21:38 -31.94128 115.96240 66 ft 14 kts 192°
2026-04-21 21:38 -31.94231 115.96210 67 ft 15 kts 194°
2026-04-21 21:38 -31.94335 115.96180 69 ft 15 kts 194°
2026-04-21 21:39 -31.94438 115.96150 70 ft 15 kts 194°
2026-04-21 21:39 -31.94550 115.96117 70 ft 17 kts 193°
2026-04-21 21:39 -31.94677 115.96081 68 ft 20 kts 194°
2026-04-21 21:39 -31.94820 115.96040 67 ft 21 kts 194°
2026-04-21 21:40 -31.94962 115.95998 67 ft 21 kts 194°
2026-04-21 21:40 -31.95102 115.95956 67 ft 20 kts 194°
2026-04-21 21:40 -31.95240 115.95917 69 ft 19 kts 194°
2026-04-21 21:40 -31.95367 115.95879 73 ft 17 kts 194°
2026-04-21 21:41 -31.95478 115.95847 77 ft 15 kts 194°
2026-04-21 21:41 -31.95577 115.95818 80 ft 13 kts 194°
2026-04-21 21:41 -31.95668 115.95792 82 ft 13 kts 193°
2026-04-21 21:41 -31.95749 115.95769 82 ft 5 kts 194°
2026-04-21 21:42 -31.95797 115.95770 82 ft 7 kts 159°
2026-04-21 21:42 -31.95827 115.95808 80 ft 4 kts 108°
2026-04-21 21:42 -31.95831 115.95827 79 ft 2 kts 102°
2026-04-21 21:42 -31.95839 115.95872 78 ft 8 kts 102°
2026-04-21 21:43 -31.95852 115.95945 76 ft 9 kts 95°
2026-04-21 21:43 -31.95818 115.95985 76 ft 2 kts 13°
2026-04-21 21:43 -31.95817 115.95985 76 ft 0 kts 13°
2026-04-21 21:44 -31.95616 115.96045 78 ft 69 kts 14°
2026-04-21 21:44 -31.94891 115.96256 64 ft 140 kts 14°
2026-04-21 21:44 -31.93834 115.96545 471 ft 162 kts 13°
2026-04-21 21:45 -31.92740 115.96824 1212 ft 166 kts 16°
2026-04-21 21:45 -31.91583 115.97168 1814 ft 182 kts 18°
2026-04-21 21:45 -31.90286 115.97567 2338 ft 205 kts 17°
2026-04-21 21:45 -31.88831 115.98010 2988 ft 224 kts 15°
2026-04-21 21:46 -31.87285 115.98468 3642 ft 242 kts 14°
2026-04-21 21:46 -31.85607 115.98958 4525 ft 251 kts 13°
2026-04-21 21:46 -31.83930 115.99446 5518 ft 254 kts 12°
2026-04-21 21:46 -31.82207 115.99947 6489 ft 258 kts 12°
2026-04-21 21:47 -31.80463 116.00452 7419 ft 263 kts 11°
2026-04-21 21:47 -31.78678 116.00826 8293 ft 266 kts
2026-04-21 21:47 -31.76820 116.00808 9192 ft 267 kts 352°
2026-04-21 21:47 -31.74985 116.00552 10062 ft 270 kts 349°
2026-04-21 21:48 -31.73095 116.00253 10771 ft 280 kts 349°
2026-04-21 21:48 -31.71129 115.99937 11314 ft 294 kts 349°
2026-04-21 21:48 -31.69074 115.99611 12092 ft 299 kts 349°
2026-04-21 21:48 -31.67024 115.99290 12890 ft 302 kts 349°
2026-04-21 21:49 -31.64946 115.98966 13652 ft 306 kts 349°
2026-04-21 21:49 -31.62818 115.98634 14414 ft 310 kts 348°
2026-04-21 21:49 -31.60664 115.98299 15153 ft 313 kts 348°
2026-04-21 21:49 -31.58498 115.97961 15864 ft 316 kts 348°
2026-04-21 21:50 -31.56340 115.97626 16550 ft 319 kts 348°
2026-04-21 21:50 -31.54122 115.97282 17227 ft 323 kts 348°
2026-04-21 21:50 -31.51876 115.96933 17903 ft 326 kts 348°
2026-04-21 21:50 -31.49636 115.96586 18576 ft 328 kts 347°
2026-04-21 21:51 -31.47359 115.96233 19223 ft 331 kts 347°
2026-04-21 21:51 -31.45094 115.95882 19857 ft 333 kts 347°
2026-04-21 21:51 -31.42786 115.95525 20488 ft 336 kts 347°
2026-04-21 21:51 -31.40447 115.95161 21094 ft 339 kts 347°
2026-04-21 21:52 -31.38117 115.94800 21673 ft 342 kts 347°
2026-04-21 21:52 -31.35733 115.94430 22246 ft 346 kts 347°
2026-04-21 21:52 -31.33357 115.94062 22802 ft 349 kts 347°
2026-04-21 21:52 -31.30929 115.93688 23391 ft 352 kts 346°
2026-04-21 21:53 -31.28483 115.93310 23962 ft 355 kts 346°
2026-04-21 21:53 -31.26046 115.92934 24504 ft 358 kts 346°
2026-04-21 21:53 -31.23564 115.92551 25083 ft 361 kts 346°
2026-04-21 21:53 -31.21055 115.92164 25625 ft 364 kts 346°
2026-04-21 21:54 -31.18555 115.91778 26134 ft 367 kts 346°
2026-04-21 21:54 -31.15994 115.91383 26663 ft 370 kts 346°
2026-04-21 21:54 -31.13459 115.90994 27164 ft 372 kts 346°
2026-04-21 21:54 -31.10876 115.90596 27639 ft 375 kts 345°
2026-04-21 21:55 -31.08261 115.90192 28079 ft 379 kts 345°
2026-04-21 21:55 -31.05657 115.89790 28534 ft 381 kts 345°
2026-04-21 21:55 -31.03001 115.89381 28962 ft 384 kts 345°
2026-04-21 21:55 -31.00371 115.88976 29360 ft 386 kts 345°
2026-04-21 21:56 -30.97676 115.88562 29745 ft 389 kts 345°
2026-04-21 21:56 -30.95007 115.88152 30122 ft 391 kts 345°
2026-04-21 21:56 -30.92275 115.87734 30485 ft 393 kts 345°
2026-04-21 21:56 -30.89546 115.87315 30816 ft 396 kts 345°
2026-04-21 21:57 -30.86802 115.86896 31157 ft 398 kts 345°
2026-04-21 21:57 -30.84058 115.86571 31462 ft 403 kts 348°
2026-04-21 21:57 -30.81223 115.86414 31767 ft 408 kts 351°
2026-04-21 21:57 -30.78386 115.86436 32056 ft 413 kts 354°
2026-04-21 21:58 -30.75496 115.86644 32352 ft 418 kts 356°
2026-04-21 21:58 -30.72567 115.86945 32624 ft 420 kts 356°
2026-04-21 21:58 -30.69659 115.87243 32885 ft 422 kts 356°
2026-04-21 21:58 -30.66741 115.87545 33221 ft 422 kts 356°
2026-04-21 21:59 -30.63818 115.87849 33610 ft 421 kts 356°
2026-04-21 21:59 -30.60909 115.88150 34050 ft 419 kts 356°
2026-04-21 21:59 -30.57999 115.88451 34476 ft 417 kts 356°
2026-04-21 21:59 -30.55133 115.88746 34900 ft 415 kts 356°
2026-04-21 22:00 -30.52247 115.89042 35282 ft 414 kts 356°
2026-04-21 22:00 -30.49374 115.89336 35666 ft 412 kts 356°
2026-04-21 22:00 -30.46541 115.89627 36050 ft 410 kts 356°
2026-04-21 22:00 -30.43721 115.89917 36382 ft 409 kts 356°
2026-04-21 22:01 -30.40894 115.90206 36687 ft 408 kts 356°
2026-04-21 22:01 -30.38053 115.90497 36975 ft 407 kts 356°
2026-04-21 22:01 -30.35251 115.90783 37274 ft 407 kts 356°
2026-04-21 22:01 -30.32422 115.91072 37565 ft 406 kts 356°
2026-04-21 22:02 -30.29619 115.91359 37866 ft 404 kts 356°
2026-04-21 22:02 -30.26823 115.91645 38131 ft 404 kts 356°
2026-04-21 22:02 -30.24002 115.91933 38394 ft 403 kts 356°
2026-04-21 22:02 -30.21234 115.92216 38656 ft 401 kts 356°
2026-04-21 22:03 -30.18442 115.92500 38856 ft 402 kts 356°
2026-04-21 22:03 -30.15665 115.92782 38988 ft 403 kts 356°
2026-04-21 22:03 -30.12858 115.93067 39071 ft 405 kts 356°
2026-04-21 22:04 -30.07247 115.93638 39073 ft 405 kts 356°
2026-04-21 22:04 -30.01628 115.94211 39072 ft 405 kts 356°
2026-04-21 22:05 -29.96020 115.94780 39072 ft 405 kts 356°
2026-04-21 22:05 -29.90397 115.95351 39071 ft 406 kts 356°
2026-04-21 22:06 -29.84765 115.95922 39072 ft 406 kts 356°
2026-04-21 22:06 -29.79111 115.96495 39071 ft 406 kts 356°
2026-04-21 22:07 -29.73505 115.97063 39073 ft 406 kts 356°
2026-04-21 22:07 -29.67877 115.97633 39070 ft 405 kts 356°
2026-04-21 22:08 -29.62242 115.98199 39072 ft 407 kts 356°
2026-04-21 22:08 -29.56609 115.98767 39074 ft 407 kts 356°
2026-04-21 22:09 -29.50971 115.99335 39076 ft 407 kts 356°
2026-04-21 22:09 -29.45319 115.99904 39074 ft 407 kts 356°
2026-04-21 22:10 -29.39676 116.00470 39072 ft 407 kts 356°
2026-04-21 22:10 -29.33996 116.01038 39074 ft 408 kts 356°
2026-04-21 22:11 -29.28359 116.01621 39075 ft 410 kts 358°
2026-04-21 22:11 -29.22685 116.02702 39074 ft 416 kts
2026-04-21 22:12 -29.17068 116.04516 39077 ft 424 kts 10°
2026-04-21 22:12 -29.11553 116.07072 39069 ft 430 kts 15°
2026-04-21 22:13 -29.06067 116.09860 39077 ft 430 kts 15°
2026-04-21 22:13 -29.00598 116.12635 39076 ft 431 kts 15°
2026-04-21 22:14 -28.95102 116.15418 39078 ft 431 kts 15°
2026-04-21 22:14 -28.89653 116.18173 39080 ft 430 kts 15°
2026-04-21 22:15 -28.84180 116.20937 39078 ft 431 kts 15°
2026-04-21 22:15 -28.78719 116.23692 39073 ft 430 kts 15°
2026-04-21 22:16 -28.73226 116.26457 39072 ft 432 kts 15°
2026-04-21 22:16 -28.67723 116.29225 39070 ft 431 kts 15°
2026-04-21 22:17 -28.62221 116.31990 39069 ft 432 kts 15°
2026-04-21 22:17 -28.56751 116.34735 39068 ft 431 kts 15°
2026-04-21 22:18 -28.51251 116.37492 39064 ft 432 kts 15°
2026-04-21 22:18 -28.45784 116.40231 39064 ft 431 kts 15°
2026-04-21 22:19 -28.40281 116.42983 39059 ft 432 kts 15°
2026-04-21 22:19 -28.34803 116.45721 39057 ft 431 kts 15°
2026-04-21 22:20 -28.29302 116.48466 39056 ft 431 kts 15°
2026-04-21 22:20 -28.23801 116.51209 39058 ft 432 kts 15°
2026-04-21 22:21 -28.18340 116.53928 39053 ft 431 kts 15°
2026-04-21 22:21 -28.12833 116.56667 39046 ft 432 kts 15°
2026-04-21 22:22 -28.07314 116.59411 39037 ft 433 kts 14°
2026-04-21 22:22 -28.01755 116.62168 39043 ft 434 kts 14°
2026-04-21 22:23 -27.96224 116.64909 39039 ft 434 kts 14°
2026-04-21 22:23 -27.90703 116.67643 39036 ft 434 kts 14°
2026-04-21 22:24 -27.85143 116.70394 39021 ft 435 kts 14°
2026-04-21 22:24 -27.79628 116.73119 39047 ft 433 kts 14°
2026-04-21 22:25 -27.74113 116.75841 39028 ft 433 kts 14°
2026-04-21 22:25 -27.68569 116.78571 39038 ft 435 kts 14°
2026-04-21 22:26 -27.62998 116.81316 39035 ft 436 kts 14°
2026-04-21 22:26 -27.57430 116.84054 39042 ft 438 kts 14°
2026-04-21 22:27 -27.51871 116.86785 39025 ft 437 kts 14°
2026-04-21 22:27 -27.46265 116.89535 39028 ft 439 kts 14°
2026-04-21 22:28 -27.40681 116.92273 39043 ft 438 kts 14°
2026-04-21 22:28 -27.35098 116.95010 39030 ft 437 kts 13°
2026-04-21 22:29 -27.29509 116.97740 39030 ft 438 kts 14°
2026-04-21 22:29 -27.23905 117.00478 39029 ft 438 kts 14°
2026-04-21 22:30 -27.18315 117.03204 39032 ft 440 kts 14°
2026-04-21 22:30 -27.12697 117.05942 39059 ft 442 kts 14°
2026-04-21 22:31 -27.07053 117.08695 39043 ft 440 kts 14°
2026-04-21 22:31 -27.01465 117.11414 39038 ft 440 kts 13°
2026-04-21 22:32 -26.95807 117.14161 39062 ft 440 kts 13°
2026-04-21 22:32 -26.90206 117.16881 39062 ft 440 kts 13°
2026-04-21 22:33 -26.84555 117.19618 39070 ft 443 kts 13°
2026-04-21 22:33 -26.78883 117.22365 39058 ft 443 kts 13°
2026-04-21 22:34 -26.73221 117.25105 39057 ft 443 kts 13°
2026-04-21 22:34 -26.67584 117.27830 39058 ft 442 kts 13°
2026-04-21 22:35 -26.61935 117.30553 39054 ft 445 kts 13°
2026-04-21 22:35 -26.56241 117.33302 39049 ft 444 kts 13°
2026-04-21 22:36 -26.47690 117.37418 39051 ft 445 kts 13°
2026-04-21 22:36 -26.42004 117.40151 39049 ft 447 kts 13°
2026-04-21 22:37 -26.36272 117.42907 39043 ft 447 kts 13°
2026-04-21 22:37 -26.30560 117.45647 39042 ft 448 kts 13°
2026-04-21 22:38 -26.24859 117.48380 39045 ft 447 kts 13°
2026-04-21 22:38 -26.19126 117.51123 39037 ft 449 kts 13°
2026-04-21 22:39 -26.13369 117.53844 39039 ft 446 kts 10°
2026-04-21 22:39 -26.07565 117.56126 39033 ft 443 kts
2026-04-21 22:40 -26.01718 117.58343 39026 ft 444 kts
2026-04-21 22:40 -25.95849 117.60575 39022 ft 443 kts
2026-04-21 22:41 -25.90007 117.62789 39028 ft 444 kts
2026-04-21 22:41 -25.84183 117.65002 39023 ft 444 kts
2026-04-21 22:42 -25.78312 117.67227 39032 ft 444 kts
2026-04-21 22:42 -25.72455 117.69445 39019 ft 444 kts
2026-04-21 22:43 -25.66589 117.71661 39042 ft 446 kts
2026-04-21 22:43 -25.60737 117.73874 39032 ft 446 kts
2026-04-21 22:44 -25.54854 117.76094 39034 ft 447 kts
2026-04-21 22:44 -25.48982 117.78312 39036 ft 446 kts
2026-04-21 22:45 -25.43071 117.80538 39033 ft 447 kts
2026-04-21 22:45 -25.37211 117.82745 39041 ft 447 kts
2026-04-21 22:46 -25.31337 117.84952 39038 ft 448 kts
2026-04-21 22:46 -25.25403 117.87179 39047 ft 449 kts
2026-04-21 22:47 -25.19499 117.89398 39042 ft 449 kts
2026-04-21 22:47 -25.13589 117.91613 39042 ft 448 kts
2026-04-21 22:48 -25.07691 117.93820 39050 ft 449 kts
2026-04-21 22:48 -25.01770 117.96036 39058 ft 448 kts
2026-04-21 22:49 -24.95862 117.98241 39058 ft 449 kts
2026-04-21 22:49 -24.89913 118.00463 39063 ft 448 kts
2026-04-21 22:50 -24.84010 118.02664 39060 ft 448 kts
2026-04-21 22:50 -24.78093 118.04869 39057 ft 448 kts
2026-04-21 22:51 -24.72187 118.07069 39055 ft 448 kts
2026-04-21 22:51 -24.66270 118.09267 39055 ft 449 kts
2026-04-21 22:52 -24.60327 118.11475 39057 ft 450 kts
2026-04-21 22:52 -24.54433 118.13663 39059 ft 450 kts
2026-04-21 22:53 -24.48504 118.15863 39057 ft 449 kts
2026-04-21 22:53 -24.42576 118.18059 39054 ft 449 kts
2026-04-21 22:54 -24.36661 118.20246 39051 ft 449 kts
2026-04-21 22:54 -24.30723 118.22440 39050 ft 448 kts
2026-04-21 22:55 -24.24783 118.24633 39047 ft 450 kts
2026-04-21 22:55 -24.18851 118.26822 39042 ft 448 kts
2026-04-21 22:56 -24.12955 118.28996 39043 ft 450 kts
2026-04-21 22:56 -24.07022 118.31183 39039 ft 449 kts
2026-04-21 22:57 -24.01079 118.33366 39036 ft 450 kts
2026-04-21 22:57 -23.95165 118.35539 39035 ft 450 kts
2026-04-21 22:58 -23.89203 118.37730 39036 ft 450 kts
2026-04-21 22:58 -23.83248 118.39912 39039 ft 451 kts
2026-04-21 22:59 -23.77312 118.42088 39044 ft 450 kts
2026-04-21 22:59 -23.71396 118.44253 39049 ft 450 kts
2026-04-21 23:00 -23.65438 118.46429 39053 ft 451 kts
2026-04-21 23:00 -23.59479 118.48608 39053 ft 450 kts
2026-04-21 23:01 -23.53545 118.50773 39056 ft 452 kts
2026-04-21 23:01 -23.47562 118.52957 39055 ft 451 kts
2026-04-21 23:02 -23.41632 118.55118 39060 ft 451 kts
2026-04-21 23:02 -23.35650 118.57294 38657 ft 449 kts
2026-04-21 23:03 -23.32722 118.58360 38367 ft 447 kts
2026-04-21 23:03 -23.29783 118.59429 38075 ft 443 kts
2026-04-21 23:03 -23.26859 118.60494 37781 ft 440 kts
2026-04-21 23:03 -23.23958 118.61548 37492 ft 439 kts
2026-04-21 23:04 -23.21052 118.62601 37173 ft 439 kts
2026-04-21 23:04 -23.18143 118.63654 36793 ft 439 kts
2026-04-21 23:04 -23.15242 118.64703 36322 ft 439 kts
2026-04-21 23:04 -23.12368 118.65745 35774 ft 438 kts
2026-04-21 23:05 -23.09471 118.66736 35245 ft 434 kts
2026-04-21 23:05 -23.06542 118.67542 34730 ft 430 kts
2026-04-21 23:05 -23.03646 118.68142 34216 ft 425 kts 360°
2026-04-21 23:05 -23.00717 118.68554 33698 ft 422 kts 356°
2026-04-21 23:06 -22.97786 118.68775 33166 ft 418 kts 353°
2026-04-21 23:06 -22.94871 118.68811 32663 ft 415 kts 351°
2026-04-21 23:06 -22.92009 118.68739 32037 ft 417 kts 351°
2026-04-21 23:06 -22.89098 118.68661 31424 ft 417 kts 351°
2026-04-21 23:07 -22.86191 118.68581 30723 ft 419 kts 351°
2026-04-21 23:07 -22.83261 118.68502 30016 ft 421 kts 352°
2026-04-21 23:07 -22.80329 118.68425 29450 ft 419 kts 352°
2026-04-21 23:07 -22.77453 118.68354 29053 ft 415 kts 352°
2026-04-21 23:08 -22.74567 118.68283 28651 ft 412 kts 352°
2026-04-21 23:08 -22.71708 118.68211 28238 ft 410 kts 353°
2026-04-21 23:08 -22.68845 118.68138 27753 ft 407 kts 353°
2026-04-21 23:08 -22.66031 118.68067 27293 ft 403 kts 353°
2026-04-21 23:09 -22.63266 118.67996 26826 ft 399 kts 353°
2026-04-21 23:09 -22.60494 118.67925 26334 ft 397 kts 353°
2026-04-21 23:09 -22.57736 118.67853 25827 ft 394 kts 354°
2026-04-21 23:09 -22.54989 118.67783 25321 ft 392 kts 354°
2026-04-21 23:10 -22.52255 118.67714 24769 ft 391 kts 354°
2026-04-21 23:10 -22.49532 118.67644 24258 ft 389 kts 354°
2026-04-21 23:10 -22.46863 118.67574 23740 ft 388 kts 354°
2026-04-21 23:10 -22.44164 118.67505 23192 ft 387 kts 354°
2026-04-21 23:11 -22.41469 118.67437 22696 ft 384 kts 355°
2026-04-21 23:11 -22.38804 118.67369 22195 ft 382 kts 355°
2026-04-21 23:11 -22.36151 118.67303 21682 ft 380 kts 355°
2026-04-21 23:11 -22.33517 118.67236 21189 ft 377 kts 355°
2026-04-21 23:12 -22.30892 118.67169 20691 ft 375 kts 355°
2026-04-21 23:12 -22.28319 118.67103 20226 ft 372 kts 355°
2026-04-21 23:12 -22.25707 118.67036 19745 ft 370 kts 355°
2026-04-21 23:12 -22.23152 118.66972 19258 ft 368 kts 355°
2026-04-21 23:13 -22.20585 118.66904 18754 ft 367 kts 355°
2026-04-21 23:13 -22.18065 118.66840 18259 ft 365 kts 355°
2026-04-21 23:13 -22.15515 118.66775 17748 ft 364 kts 355°
2026-04-21 23:13 -22.12989 118.66711 17268 ft 362 kts 356°
2026-04-21 23:14 -22.10477 118.66647 16787 ft 361 kts 356°
2026-04-21 23:14 -22.07973 118.66582 16317 ft 359 kts 356°
2026-04-21 23:14 -22.05483 118.66518 15849 ft 356 kts 356°
2026-04-21 23:14 -22.03003 118.66454 15376 ft 355 kts 356°
2026-04-21 23:15 -22.00527 118.66390 14896 ft 353 kts 357°
2026-04-21 23:15 -21.98068 118.66327 14426 ft 351 kts 357°
2026-04-21 23:15 -21.95630 118.66265 13971 ft 349 kts 358°
2026-04-21 23:15 -21.93239 118.66204 13524 ft 346 kts 358°
2026-04-21 23:16 -21.90832 118.66143 13077 ft 344 kts 358°
2026-04-21 23:16 -21.88427 118.66082 12631 ft 341 kts 358°
2026-04-21 23:16 -21.86069 118.66022 12203 ft 338 kts 359°
2026-04-21 23:16 -21.83721 118.65963 11771 ft 335 kts 359°
2026-04-21 23:17 -21.81384 118.65903 11352 ft 332 kts 359°
2026-04-21 23:17 -21.79067 118.65844 10926 ft 329 kts 359°
2026-04-21 23:17 -21.76799 118.65786 10517 ft 326 kts 360°
2026-04-21 23:17 -21.74554 118.65730 10207 ft 319 kts 360°
2026-04-21 23:18 -21.72360 118.65673 10091 ft 305 kts
2026-04-21 23:18 -21.70293 118.65621 9968 ft 293 kts
2026-04-21 23:18 -21.68257 118.65569 9629 ft 289 kts
2026-04-21 23:18 -21.66233 118.65517 9255 ft 287 kts
2026-04-21 23:19 -21.64256 118.65469 8898 ft 284 kts
2026-04-21 23:19 -21.62290 118.65420 8544 ft 282 kts
2026-04-21 23:19 -21.60323 118.65370 8196 ft 279 kts
2026-04-21 23:19 -21.58399 118.65322 7854 ft 276 kts
2026-04-21 23:20 -21.56500 118.65274 7512 ft 273 kts
2026-04-21 23:20 -21.54590 118.65226 7166 ft 270 kts
2026-04-21 23:20 -21.52721 118.65178 6833 ft 267 kts
2026-04-21 23:20 -21.50853 118.65131 6504 ft 264 kts
2026-04-21 23:21 -21.49032 118.65084 6173 ft 262 kts
2026-04-21 23:21 -21.47227 118.65040 5842 ft 259 kts
2026-04-21 23:21 -21.45413 118.64995 5507 ft 257 kts
2026-04-21 23:21 -21.43639 118.64951 5176 ft 255 kts
2026-04-21 23:22 -21.41865 118.64907 4841 ft 253 kts
2026-04-21 23:22 -21.40092 118.64862 4511 ft 252 kts
2026-04-21 23:22 -21.38353 118.64819 4187 ft 250 kts
2026-04-21 23:22 -21.36605 118.64773 3861 ft 248 kts
2026-04-21 23:23 -21.34890 118.64730 3539 ft 247 kts
2026-04-21 23:23 -21.33188 118.64688 3219 ft 245 kts
2026-04-21 23:23 -21.31488 118.64645 3020 ft 238 kts
2026-04-21 23:23 -21.29853 118.64601 2936 ft 226 kts
2026-04-21 23:24 -21.28319 118.64561 2851 ft 216 kts
2026-04-21 23:24 -21.26832 118.64615 2743 ft 208 kts 17°
2026-04-21 23:24 -21.25669 118.65366 2723 ft 192 kts 46°
2026-04-21 23:24 -21.24763 118.66412 2757 ft 187 kts 47°
2026-04-21 23:25 -21.23902 118.67403 2783 ft 176 kts 46°
2026-04-21 23:25 -21.23090 118.68326 2728 ft 160 kts 46°
2026-04-21 23:25 -21.22336 118.69177 2723 ft 158 kts 46°
2026-04-21 23:25 -21.21595 118.70046 2725 ft 158 kts 55°
2026-04-21 23:26 -21.21246 118.71160 2717 ft 161 kts 88°
2026-04-21 23:26 -21.21475 118.72335 2740 ft 164 kts 106°
2026-04-21 23:26 -21.21920 118.73465 2757 ft 163 kts 111°
2026-04-21 23:26 -21.22393 118.74492 2721 ft 144 kts 112°
2026-04-21 23:27 -21.22829 118.75420 2715 ft 139 kts 112°
2026-04-21 23:27 -21.23263 118.76352 2724 ft 139 kts 112°
2026-04-21 23:27 -21.23690 118.77275 2580 ft 139 kts 112°
2026-04-21 23:27 -21.24120 118.78208 2391 ft 138 kts 112°
2026-04-21 23:28 -21.24542 118.79123 2213 ft 138 kts 112°
2026-04-21 23:28 -21.24964 118.80035 2035 ft 137 kts 112°
2026-04-21 23:28 -21.25391 118.80957 1853 ft 136 kts 113°
2026-04-21 23:28 -21.25811 118.81866 1672 ft 135 kts 113°
2026-04-21 23:29 -21.26226 118.82759 1493 ft 135 kts 114°
2026-04-21 23:29 -21.26654 118.83662 1316 ft 134 kts 114°
2026-04-21 23:29 -21.27064 118.84551 1137 ft 134 kts 113°
2026-04-21 23:29 -21.27464 118.85458 959 ft 134 kts 113°
2026-04-21 23:30 -21.27877 118.86351 799 ft 134 kts 114°
2026-04-21 23:30 -21.28299 118.87253 670 ft 131 kts 114°
2026-04-21 23:30 -21.28640 118.87994 673 ft 87 kts 116°
2026-04-21 23:30 -21.28836 118.88409 672 ft 43 kts 116°
2026-04-21 23:31 -21.28958 118.88679 675 ft 37 kts 114°
2026-04-21 23:31 -21.29065 118.88909 680 ft 28 kts 116°
2026-04-21 23:31 -21.29136 118.89058 683 ft 13 kts 116°
2026-04-21 23:31 -21.29159 118.89144 685 ft 9 kts 101°
2026-04-21 23:32 -21.29162 118.89157 685 ft 0 kts 109°
2026-04-21 23:32 -21.29163 118.89163 685 ft 0 kts 95°
2026-04-21 23:32 -21.29164 118.89170 685 ft 0 kts 111°
2026-04-21 23:32 -21.29172 118.89176 685 ft 2 kts 160°
2026-04-21 23:33 -21.29184 118.89173 685 ft 1 kts 220°
2026-04-21 23:33 -21.29183 118.89151 685 ft 5 kts 294°
2026-04-21 23:33 -21.29158 118.89102 684 ft 9 kts 299°
2026-04-21 23:33 -21.29122 118.89031 683 ft 12 kts 297°
2026-04-21 23:34 -21.29080 118.88940 681 ft 14 kts 296°
2026-04-21 23:34 -21.29033 118.88837 679 ft 16 kts 296°
2026-04-21 23:34 -21.28977 118.88718 676 ft 18 kts 297°
2026-04-21 23:34 -21.28916 118.88588 673 ft 20 kts 296°
2026-04-21 23:35 -21.28851 118.88448 672 ft 20 kts 296°
2026-04-21 23:35 -21.28797 118.88331 672 ft 13 kts 296°
2026-04-21 23:35 -21.28761 118.88254 672 ft 9 kts 303°
2026-04-21 23:35 -21.28699 118.88245 671 ft 11 kts 25°
2026-04-21 23:36 -21.28639 118.88276 671 ft 8 kts 25°
2026-04-21 23:36 -21.28612 118.88289 671 ft 0 kts 25°